Theta_e
287 287 285 288 287 287 284 283 284 284 285 284 286 284 282 286 282 282 287 292 291 294 296 298 298 299 298 299 299 300 300 299 299 298 297 296 296 296 296 296 296 295 295 294 294 295 295 295 295 295 295 295 295 295 296 296 296 296 296 295 294 294 294 293 293 294 295 295 295 295 296 296 295 295 295 295 295 295 295 295 296 296 295 295 294 294 294
286 286 286 287 288 285 285 285 285 285 284 286 287 284 284 285 282 283 290 292 293 296 297 298 299 300 300 300 300 299 298 298 297 297 296 295 295 295 295 295 295 295 294 294 294 294 294 294 294 294 294 295 295 295 295 295 295 295 295 294 293 293 292 292 292 293 293 294 293 293 293 293 294 294 294 294 293 293 293 293 293 295 293 293 293 293 293
286 286 287 287 286 284 284 284 283 284 283 284 283 285 286 288 287 287 291 291 289 293 299 299 300 301 301 299 297 297 298 297 297 296 295 294 294 294 295 295 295 294 294 294 294 294 294 294 294 294 294 294 294 294 294 294 294 294 294 293 293 292 292 292 292 292 292 292 292 291 292 292 292 292 292 292 292 292 292 292 292 292 292 291 291 292 292
283 286 285 284 285 285 283 283 284 285 285 285 285 285 285 285 285 289 291 289 287 292 299 299 300 299 298 297 297 297 297 297 297 295 294 294 294 294 294 295 295 294 293 293 293 294 294 294 294 294 294 294 294 294 294 294 294 294 294 293 292 292 292 292 291 291 291 291 291 291 291 291 291 291 291 291 291 291 291 291 291 291 290 290 290 290 291
276 286 284 284 282 284 283 283 286 287 284 283 285 286 289 289 292 289 287 289 295 297 299 297 297 298 297 297 297 297 297 297 296 295 294 294 294 294 293 294 294 294 293 294 294 294 294 294 294 294 294 294 293 294 293 294 294 293 293 292 292 292 291 291 291 291 290 290 290 290 290 290 291 291 290 290 290 290 290 291 290 290 289 289 289 289 290
280 285 283 285 281 275 276 284 290 289 285 284 286 285 286 290 289 287 289 290 296 297 297 297 296 297 297 297 298 299 297 296 295 295 295 294 294 293 294 294 294 293 294 294 294 294 294 294 295 294 295 294 294 294 294 294 293 293 292 292 291 291 291 291 291 290 290 290 289 289 290 290 290 289 289 289 289 290 290 290 289 289 289 288 289 289 290
282 282 284 280 276 277 284 289 289 290 289 287 286 286 285 287 287 287 289 294 296 297 299 298 298 299 299 299 298 298 298 298 296 295 295 294 293 293 293 293 293 293 293 293 293 293 293 294 294 294 294 294 294 293 293 293 292 292 292 291 291 291 291 290 290 290 290 290 290 289 289 289 289 289 288 288 289 290 289 288 288 288 288 288 289 289 289
281 280 278 276 276 284 289 288 288 289 289 287 288 288 288 286 286 289 291 295 296 297 297 298 298 298 298 299 299 299 299 299 297 295 294 294 294 293 294 293 293 293 293 293 293 293 296 295 294 295 294 293 293 292 293 292 292 291 291 291 290 290 290 290 290 289 289 289 288 288 288 288 288 288 288 288 288 289 289 287 288 288 289 289 288 287 288
281 280 280 280 285 286 286 285 286 289 287 289 287 284 286 288 286 289 292 294 296 296 297 298 298 298 298 295 295 298 299 298 298 297 296 295 295 295 294 294 294 295 295 295 294 295 294 294 294 293 293 293 293 292 292 291 291 290 291 290 290 291 290 290 290 289 289 289 289 288 288 288 288 287 287 288 288 290 287 287 287 287 288 288 288 287 288
280 279 277 280 277 277 281 287 289 291 288 289 287 288 286 287 287 291 295 294 295 295 296 296 297 297 294 291 292 296 298 298 297 297 296 296 295 295 294 294 295 295 295 295 295 294 293 293 293 293 293 293 292 291 291 290 290 290 290 290 290 291 290 290 290 289 289 289 289 289 287 287 287 287 287 288 288 289 286 286 287 286 288 287 287 288 288
280 277 278 276 278 278 285 287 289 291 290 291 288 287 284 286 291 293 296 295 296 296 295 295 296 295 290 290 293 295 296 296 296 295 295 295 295 294 294 294 293 293 294 294 294 294 293 292 292 292 292 292 292 291 291 290 290 290 290 290 290 290 290 290 289 289 288 288 288 287 288 287 288 287 288 288 288 287 287 286 287 287 290 287 287 287 288
276 278 276 275 275 279 287 285 290 291 291 291 289 279 280 287 292 296 297 296 296 296 296 296 296 294 291 291 293 295 296 296 296 295 294 293 293 293 294 294 294 293 294 294 293 293 293 292 292 292 292 292 293 292 291 290 290 290 290 291 290 290 290 290 289 289 290 291 289 288 287 287 287 288 289 287 287 286 287 286 286 286 287 287 286 287 287
278 279 274 273 278 283 284 288 291 291 292 290 281 280 280 290 294 296 297 297 297 296 295 296 294 294 291 293 295 296 296 295 295 296 295 294 294 293 293 293 295 293 293 293 293 293 293 292 292 293 293 293 292 292 290 290 290 291 290 289 289 290 289 289 290 289 288 288 289 288 288 288 290 289 287 287 287 286 286 286 286 286 286 287 286 287 287
280 273 278 279 275 282 287 289 292 292 290 281 282 286 288 294 295 297 298 297 297 297 296 296 290 290 294 295 295 295 295 295 294 294 294 294 293 294 294 295 294 293 293 293 293 293 292 293 293 293 293 293 292 291 290 290 291 289 289 289 289 289 290 290 290 290 289 288 289 290 290 288 287 287 287 287 288 286 286 286 286 286 286 287 286 286 287
277 272 274 276 277 283 293 293 291 292 284 283 283 287 291 295 296 296 296 297 296 297 293 290 291 293 293 294 294 294 294 294 293 293 293 292 292 292 292 293 293 293 292 292 292 291 292 292 293 293 293 292 291 291 290 291 289 289 289 289 290 290 290 290 291 290 289 290 290 291 290 288 286 287 286 286 286 287 285 286 285 286 286 286 286 286 286
280 273 277 276 281 284 294 296 290 290 288 289 289 292 291 292 295 295 295 294 296 295 292 291 292 293 293 292 293 293 293 293 293 293 293 293 293 293 293 293 293 293 292 291 291 290 291 292 293 293 293 292 291 290 290 288 288 289 289 289 290 291 291 291 290 290 291 291 289 289 289 288 288 286 287 287 287 286 285 285 285 286 286 286 286 286 285
278 277 280 280 285 288 289 289 290 288 291 291 292 293 295 294 293 293 295 294 293 293 293 292 292 292 293 292 293 293 292 293 293 293 293 293 293 292 292 292 293 293 291 290 290 290 290 291 292 292 292 291 291 290 289 288 290 289 289 289 290 290 290 290 291 290 290 288 288 288 288 288 289 289 288 287 286 285 285 285 285 285 286 286 286 285 286
285 285 285 286 287 287 289 289 289 290 290 292 292 293 294 294 296 296 295 294 293 293 294 293 292 293 293 293 293 293 293 293 293 294 294 293 293 293 293 292 292 292 292 291 290 289 288 290 291 292 291 292 291 291 288 290 288 289 289 289 290 289 289 289 290 289 289 288 288 288 289 288 288 286 287 289 288 286 284 285 285 285 286 287 286 286 286
286 282 286 286 287 286 288 289 290 290 291 291 292 293 293 293 294 293 293 294 294 294 294 294 293 292 293 293 293 293 293 293 293 293 293 293 293 292 292 292 292 292 291 290 290 289 289 288 290 290 291 292 292 289 290 289 288 289 290 290 290 288 289 288 288 288 289 288 288 288 288 288 288 289 288 285 286 289 286 284 285 286 286 287 287 286 286
281 281 286 287 287 287 288 288 289 290 290 291 291 292 293 293 293 293 293 294 293 294 293 294 293 292 293 293 292 292 292 292 293 293 293 293 293 293 293 292 292 291 291 290 290 290 289 288 290 290 290 290 290 290 290 289 288 289 290 290 289 287 288 289 289 288 289 289 289 288 287 286 287 286 285 284 284 287 288 288 287 286 286 286 286 286 285
284 286 287 287 289 289 289 290 289 290 290 291 291 292 293 293 293 292 293 295 294 294 293 294 293 292 292 293 293 292 292 293 293 294 294 294 293 292 291 291 292 291 290 290 290 291 290 289 289 290 290 290 290 290 290 289 289 290 289 289 288 287 287 288 289 289 290 290 289 287 287 286 286 286 286 286 286 286 284 285 286 288 287 286 288 286 285
282 285 285 289 286 286 287 287 289 290 291 292 292 292 292 293 292 293 293 293 294 294 294 294 294 293 292 293 293 293 293 293 294 294 294 294 293 292 292 292 291 291 292 291 291 291 290 289 289 290 289 290 290 290 290 289 290 290 289 288 288 287 287 287 287 288 288 287 287 287 286 286 287 288 286 289 287 287 286 289 288 287 287 287 287 286 286
282 287 288 288 286 286 287 289 289 290 292 293 292 292 292 293 293 294 293 292 293 293 294 295 294 293 293 293 294 294 294 294 294 294 294 294 293 292 292 290 290 290 290 292 291 290 289 289 290 290 289 289 289 289 289 289 290 290 289 289 288 286 288 287 287 288 287 286 285 286 285 284 285 286 286 285 287 288 289 290 288 285 284 284 285 286 286
288 289 290 289 288 287 288 289 290 291 291 293 292 292 293 293 293 294 294 294 293 293 294 295 296 295 294 294 294 293 293 294 294 295 294 294 293 292 292 290 290 290 290 290 290 290 289 289 290 289 290 289 289 289 288 288 289 289 290 290 288 287 288 287 287 287 285 286 286 285 284 283 284 285 286 287 285 286 288 288 288 288 287 287 285 283 284
290 290 289 288 288 289 290 290 290 290 292 293 292 292 292 292 293 295 294 294 294 294 294 294 295 296 295 294 294 293 293 294 294 294 294 293 292 291 291 290 289 290 290 291 290 290 289 289 289 289 290 289 288 288 288 288 288 289 289 289 288 287 287 287 286 287 286 286 285 286 287 286 286 284 284 286 287 285 285 286 287 287 285 284 283 282 283
291 290 291 291 290 290 290 291 290 289 290 292 292 291 293 295 294 295 294 294 294 295 294 294 294 295 295 294 294 294 293 293 293 293 293 292 291 291 290 290 290 290 290 290 290 289 289 289 289 288 289 288 288 288 288 288 288 289 288 289 289 288 287 287 287 287 286 286 286 285 285 285 285 284 284 283 284 285 285 285 284 286 285 286 287 288 288
292 293 293 291 290 288 290 289 289 289 290 291 292 291 292 293 295 295 295 295 295 295 295 295 295 294 294 294 294 294 293 292 292 293 293 292 291 291 290 290 290 289 289 289 289 288 288 289 289 289 289 289 288 288 289 289 287 287 287 287 286 285 283 285 288 288 287 286 285 285 284 285 284 284 285 283 282 283 285 286 286 285 285 285 286 287 287
292 292 291 289 288 289 289 288 290 290 291 291 292 292 292 293 294 294 293 293 293 293 293 293 293 292 292 293 293 292 291 291 291 291 291 290 290 290 289 289 289 289 289 289 288 288 288 288 289 289 290 288 288 288 289 288 287 287 286 287 287 286 286 287 287 287 286 287 286 286 286 286 285 285 283 283 283 283 283 284 284 284 285 284 284 285 286
289 287 287 289 290 290 290 290 291 290 290 291 292 292 293 294 293 293 292 292 292 292 292 292 293 293 292 292 293 291 291 291 290 290 290 289 288 288 288 288 288 288 288 288 287 287 288 288 288 289 289 287 288 288 289 288 288 287 287 287 287 286 285 285 285 286 287 287 286 287 284 283 284 284 283 283 282 283 283 284 284 283 284 284 285 287 285
288 288 290 290 291 291 291 289 289 289 290 291 292 292 294 294 292 291 290 290 291 291 291 291 292 292 292 292 292 292 291 291 291 291 290 289 288 288 288 288 287 287 287 287 287 287 288 288 289 290 289 287 288 288 288 288 288 288 288 287 288 287 286 285 285 285 286 286 286 283 283 284 284 284 283 284 284 283 283 284 283 283 285 285 285 284 286
287 289 290 290 291 291 291 289 289 290 290 291 292 292 293 293 291 289 289 290 290 290 290 291 291 291 291 292 292 292 292 291 291 290 289 288 287 288 288 288 288 287 288 288 287 287 288 288 289 290 289 288 288 288 288 288 288 287 286 286 285 283 281 281 282 285 285 286 285 285 286 285 284 283 282 283 283 284 284 283 282 283 282 283 284 285 286
289 289 290 290 290 289 289 289 290 289 290 292 292 292 291 290 289 288 288 289 290 290 290 290 290 290 291 291 291 291 291 290 289 288 287 287 286 286 288 289 289 287 288 288 287 287 288 288 288 290 287 287 287 288 289 288 286 288 287 285 285 285 283 282 284 283 283 285 285 285 285 286 285 284 283 283 284 284 284 284 285 284 283 284 285 286 286
289 288 286 287 288 288 288 288 289 288 289 291 292 292 291 291 290 289 289 290 290 290 290 289 290 291 291 291 291 290 290 289 288 287 286 285 285 285 286 288 289 289 288 288 288 288 288 289 290 288 287 287 287 288 288 289 288 289 287 286 286 285 283 282 282 283 282 283 285 286 286 285 286 284 285 285 283 282 283 283 283 283 284 284 285 285 285
291 291 290 291 291 290 289 288 288 289 288 290 291 291 291 290 290 290 290 290 290 290 290 290 290 290 290 290 290 289 288 287 285 285 285 285 284 284 285 286 288 288 288 287 287 287 288 289 289 288 288 287 287 287 287 288 289 288 287 285 285 284 286 284 283 283 284 284 285 284 285 285 284 285 285 284 283 283 283 282 282 283 283 284 285 284 284
292 293 293 292 291 292 292 291 290 290 289 288 289 290 290 289 289 289 289 289 289 289 290 290 289 289 289 288 288 287 287 287 286 285 284 284 284 284 284 285 285 286 286 286 287 288 289 289 288 288 288 288 287 287 287 287 288 288 287 286 285 285 285 283 282 284 285 285 284 284 284 284 285 283 283 283 284 283 282 282 283 283 283 284 285 285 284
292 291 290 290 291 292 292 291 291 290 290 289 289 288 288 288 287 287 287 288 289 289 289 289 289 289 288 287 286 286 287 287 286 285 284 284 284 283 284 286 286 286 286 286 286 288 288 288 285 285 288 287 287 287 286 286 286 287 286 285 286 284 284 284 283 283 282 283 283 284 284 284 284 284 283 284 284 284 284 284 284 283 283 284 284 284 285
292 293 292 291 291 292 292 291 291 290 289 289 288 288 288 287 287 287 288 288 288 289 289 289 288 288 287 287 287 287 287 286 286 285 285 283 282 284 285 285 285 286 286 287 289 288 287 288 285 284 286 287 287 287 286 283 286 285 285 285 285 285 284 284 283 283 283 282 283 284 283 282 283 284 282 284 285 285 284 285 284 283 283 283 283 282 283
292 293 293 292 291 291 292 292 291 290 289 288 289 289 288 288 287 287 288 287 288 288 288 288 288 288 287 285 285 285 284 284 285 284 283 282 283 285 285 285 285 284 286 287 286 288 288 288 284 284 287 287 287 287 286 283 283 284 284 285 285 285 285 285 284 282 283 283 282 283 283 284 284 284 284 284 284 285 284 284 284 285 285 284 284 283 283
290 289 289 290 291 291 291 291 290 289 290 289 288 288 288 288 287 287 287 287 287 287 288 288 287 286 286 286 285 284 284 283 283 284 283 283 284 286 285 286 287 287 288 288 287 289 289 287 287 287 287 288 288 288 286 283 283 285 284 285 285 285 285 284 285 284 284 284 283 283 284 284 284 285 285 284 284 284 284 285 285 284 285 285 285 285 285
290 290 290 290 290 290 291 290 290 289 289 290 289 288 287 287 287 288 287 286 286 287 288 287 287 286 285 286 286 286 286 285 284 284 284 284 284 285 285 286 287 288 288 286 288 288 287 286 287 288 288 288 288 288 287 285 283 284 284 284 285 285 285 284 284 283 283 283 284 282 283 284 284 285 284 285 284 285 285 285 285 285 285 285 285 286 285
291 290 289 290 290 290 290 290 290 289 288 289 290 289 288 288 288 287 287 287 286 287 288 288 288 287 287 287 287 287 286 285 285 285 285 284 284 284 285 286 288 288 287 287 287 288 286 286 288 288 288 288 288 286 287 284 285 284 284 284 284 285 285 284 283 284 284 284 284 284 284 285 284 285 284 284 285 285 285 285 285 285 285 286 287 286 286
290 290 289 289 289 289 289 290 289 288 287 288 288 289 288 288 289 288 288 287 287 287 287 288 288 288 288 288 288 287 286 285 285 285 285 286 286 284 284 287 289 288 286 286 286 286 286 287 288 287 288 287 287 285 285 286 286 285 285 285 285 285 285 284 284 284 283 284 284 285 284 284 285 285 285 285 285 285 285 285 285 285 285 285 285 287 287
289 290 289 290 289 288 289 288 288 288 287 287 288 289 289 289 289 288 287 287 287 287 287 287 287 287 288 287 287 286 286 285 285 285 285 286 288 288 289 290 290 289 285 287 286 286 286 286 287 287 287 288 287 285 285 287 286 285 285 285 285 285 285 285 285 284 284 283 284 284 284 284 284 285 285 285 285 285 285 285 285 286 285 285 285 286 286
289 290 290 290 289 289 288 288 288 287 288 287 288 288 289 289 289 288 287 287 287 287 287 287 287 287 287 287 287 286 285 285 285 284 285 285 285 286 286 285 284 283 284 285 286 286 286 286 286 287 286 286 286 286 287 287 286 286 286 285 285 285 285 285 285 284 284 284 284 284 284 284 284 284 285 285 285 285 284 285 285 285 285 285 285 286 287
289 290 290 290 289 288 288 288 288 288 289 288 287 288 288 289 288 288 288 288 288 287 287 288 287 287 287 287 287 288 288 287 287 286 285 284 284 286 289 286 286 283 284 285 286 286 287 287 287 285 285 285 285 285 287 286 286 286 286 286 286 285 285 285 285 285 285 285 285 285 284 285 285 285 285 285 284 285 285 285 285 286 285 285 285 286 286
289 290 290 287 289 289 289 289 289 289 288 288 287 288 288 289 289 288 289 289 288 288 288 288 288 288 288 288 288 288 288 288 288 288 290 289 288 290 291 288 288 285 285 284 285 286 287 286 286 285 285 285 285 286 286 286 286 286 286 286 286 286 286 285 285 285 285 285 285 285 285 285 284 285 285 285 285 285 285 285 285 285 285 286 286 286 287
290 289 289 289 290 290 289 289 288 288 287 287 287 287 287 288 288 288 289 289 290 290 289 289 289 289 289 289 289 287 285 285 285 286 287 287 287 287 287 287 286 286 285 286 286 286 286 286 286 285 285 285 285 286 287 287 286 286 286 286 286 286 286 286 286 286 285 285 285 285 284 284 285 285 284 284 285 285 285 285 285 285 285 285 285 285 285
290 290 289 289 289 289 288 288 288 288 287 288 288 288 288 288 288 288 288 289 289 289 289 289 289 289 289 289 289 290 290 289 286 287 287 288 289 288 286 284 286 286 286 285 286 286 286 285 286 286 285 285 286 286 287 287 286 286 286 286 286 286 286 286 286 285 285 285 285 285 285 285 285 284 284 285 285 285 285 285 285 285 285 285 285 285 285
291 291 290 289 289 288 288 288 288 288 288 289 288 288 288 288 288 288 288 288 289 288 289 289 289 289 289 289 289 290 290 290 290 290 290 289 289 288 288 286 285 285 286 287 287 287 286 285 285 285 285 284 286 286 286 286 286 286 286 286 286 286 286 286 286 286 286 286 285 285 285 285 285 285 285 285 285 285 285 285 285 285 286 285 285 285 285
291 290 289 289 288 288 288 287 287 289 289 288 289 288 288 288 287 287 287 288 289 288 289 288 289 289 288 288 289 289 289 289 289 291 288 288 289 289 288 287 287 285 285 286 287 287 285 285 285 285 285 286 286 286 286 286 286 286 286 287 286 286 286 286 284 285 285 286 286 285 285 286 286 285 285 285 285 285 285 285 285 284 283 284 285 285 285
290 290 290 290 290 290 290 290 290 290 289 289 289 288 288 288 289 288 288 288 288 288 288 288 287 288 288 288 287 288 288 288 289 288 288 287 288 287 287 287 287 286 286 286 287 287 287 286 286 286 286 286 286 286 286 286 287 287 286 287 287 287 287 286 286 286 286 286 286 286 286 286 286 286 286 286 285 285 285 284 284 284 285 285 285 285 285
292 292 292 291 291 290 290 290 290 290 290 290 289 288 288 289 289 288 288 286 289 289 289 288 287 287 286 287 288 288 287 288 288 288 287 287 286 287 287 286 287 286 286 287 287 288 287 287 286 285 286 287 287 287 286 286 288 288 288 288 287 288 288 288 287 287 287 287 286 286 286 286 286 286 286 286 286 286 286 285 285 285 285 285 285 285 285
Wind_Speed
0 0 2 2 1 1 2 6 8 9 8 6 9 7 4 10 7 9 11 14 12 14 19 21 21 20 19 18 17 14 14 13 13 14 14 14 13 11 11 11 10 11 10 8 8 7 8 8 9 8 7 7 6 6 5 5 6 6 6 7 7 7 7 7 6 6 6 5 6 7 7 8 8 8 8 7 7 7 7 7 7 8 9 8 9 9 9
1 4 1 1 4 2 2 1 1 2 8 11 10 4 1 6 2 4 18 17 15 14 16 14 13 11 13 12 12 13 16 17 16 16 15 14 13 12 12 11 11 10 11 10 9 9 8 10 9 8 7 7 7 8 6 6 6 4 7 7 7 7 7 6 6 6 6 6 7 7 8 8 8 7 7 7 7 8 8 8 8 8 9 8 8 8 8
0 4 4 5 2 1 4 2 2 2 3 2 1 3 3 7 7 2 13 13 3 0 8 12 11 12 12 13 15 17 15 16 17 16 15 14 13 12 12 12 11 11 11 10 9 9 9 10 9 8 8 7 7 7 6 6 6 5 7 8 7 7 7 6 6 7 7 7 8 8 7 7 7 6 6 6 7 8 8 8 9 8 8 9 9 8 8
1 2 4 4 5 3 4 1 2 2 5 7 2 3 4 5 6 9 11 8 3 3 11 12 15 15 17 19 18 17 14 16 16 16 15 14 13 13 12 12 12 12 11 11 11 11 10 9 9 9 8 8 8 7 7 7 6 5 7 7 7 7 6 6 7 7 7 8 8 7 7 6 5 5 5 7 8 8 8 9 8 7 9 9 8 8 8
2 1 2 4 1 2 1 3 2 3 3 2 2 2 1 2 14 14 10 12 10 15 16 17 16 18 17 17 18 16 15 15 16 17 16 14 13 13 12 13 13 13 13 12 12 11 9 10 10 9 10 10 9 8 8 6 5 7 7 7 7 7 6 7 7 7 7 7 7 6 6 5 5 6 7 7 8 8 8 6 6 8 8 8 8 8 8
4 1 1 0 4 3 7 1 1 4 1 3 4 2 3 5 5 5 3 3 11 12 15 20 20 22 23 20 15 14 15 15 13 13 15 15 14 12 11 13 13 12 11 10 11 11 10 9 9 8 8 10 8 7 8 6 7 6 7 6 7 7 7 7 7 7 6 6 6 5 5 5 6 7 7 7 6 6 6 7 8 8 8 9 8 9 8
3 0 1 4 2 8 1 3 3 6 5 3 4 1 2 3 0 2 3 9 18 22 23 22 21 16 14 14 16 14 16 17 17 17 15 15 15 14 13 13 12 12 13 12 11 9 9 9 7 8 7 8 8 8 7 8 6 7 6 7 6 6 7 6 6 5 5 5 5 5 5 6 6 6 6 6 7 6 6 7 7 7 7 8 7 7 8
3 2 1 4 5 3 4 3 2 3 3 2 4 1 2 3 3 6 7 9 9 8 7 7 8 13 14 12 11 15 13 12 15 17 15 16 16 16 14 15 14 14 15 15 14 12 9 9 8 9 9 8 9 8 7 8 6 6 6 6 6 6 6 5 4 4 4 4 4 5 5 6 6 6 5 5 6 6 6 7 6 6 7 7 8 9 9
4 3 2 3 3 4 1 4 2 6 5 7 6 5 8 6 4 5 8 9 10 9 9 11 12 13 13 11 4 5 12 13 10 13 15 16 15 13 11 13 13 13 14 14 12 11 9 9 10 8 7 8 9 8 8 6 7 6 6 6 5 4 4 4 3 3 4 4 4 4 5 5 5 4 4 6 6 5 7 7 7 8 8 8 7 7 8
4 6 2 1 2 2 5 9 1 4 1 3 2 2 2 2 4 6 12 14 14 13 13 14 15 15 14 10 10 10 10 11 13 10 9 9 10 11 11 10 12 12 12 12 11 12 11 10 9 8 7 9 9 8 7 6 7 6 6 5 4 4 4 3 3 3 3 4 4 4 4 3 3 3 4 4 5 5 6 7 8 8 7 7 7 6 7
3 3 5 3 5 7 6 4 2 4 2 2 2 2 6 4 10 9 14 15 16 19 20 19 17 15 15 16 13 12 14 14 13 15 13 12 11 12 14 15 15 14 13 14 12 11 11 11 8 8 8 10 9 8 7 6 6 7 6 5 5 5 4 3 3 3 3 4 4 3 3 2 2 3 3 3 3 4 6 6 6 6 6 6 7 7 7
1 6 4 4 4 1 1 2 3 5 4 3 2 1 7 8 13 14 16 19 19 17 18 20 19 20 18 17 14 13 15 16 15 15 14 13 12 10 10 10 12 12 12 13 12 12 13 11 9 9 9 9 9 8 6 6 6 6 6 6 4 4 4 3 3 3 3 3 2 2 2 1 2 3 2 3 6 6 6 5 5 6 6 6 7 7 7
3 6 0 3 4 4 1 3 5 5 4 3 2 9 3 8 13 15 16 18 18 19 19 18 18 8 4 6 14 16 17 16 13 13 13 13 15 15 14 13 13 12 12 14 15 14 12 11 9 9 9 9 8 7 6 6 6 6 5 4 4 4 4 4 4 3 3 3 3 2 1 1 1 2 3 4 5 5 5 5 5 6 7 6 7 7 7
7 5 6 6 3 4 4 1 6 4 4 3 8 6 2 9 13 12 14 18 17 19 21 13 5 6 13 18 16 16 17 16 14 14 14 12 9 8 10 13 13 13 12 12 12 10 10 11 10 8 9 9 8 7 6 7 7 4 5 5 5 5 5 4 4 4 4 2 2 3 1 1 3 3 3 4 3 4 4 4 6 6 6 6 6 6 6
5 3 3 2 2 2 7 10 4 1 3 6 4 0 2 4 7 12 8 12 12 15 11 7 11 15 19 20 18 16 16 16 16 15 15 15 14 14 12 10 11 13 12 13 13 12 10 10 9 8 10 10 8 6 7 8 5 5 5 5 5 5 5 5 4 4 4 3 3 2 2 2 3 3 2 4 3 3 4 5 5 6 7 7 7 7 7
6 3 4 4 4 2 8 10 8 6 6 2 4 5 5 4 7 8 8 6 9 9 11 13 13 16 18 17 17 16 15 16 15 15 14 14 13 13 12 13 13 14 13 11 11 10 9 9 9 8 10 9 7 7 8 4 4 4 5 5 5 6 5 5 4 4 4 3 3 2 2 2 2 2 1 1 2 3 3 4 5 6 6 6 6 7 8
4 4 5 2 3 4 4 1 1 2 2 1 4 2 10 11 6 4 9 11 8 11 14 14 16 16 18 18 18 18 16 16 16 16 16 17 17 15 15 14 12 12 13 13 12 10 8 9 8 8 8 11 8 8 6 5 5 5 5 5 6 5 6 6 5 4 3 3 3 2 1 2 2 1 0 0 1 3 3 4 4 5 5 5 6 6 7
2 2 3 2 2 2 2 1 1 1 1 0 2 4 6 3 8 11 12 11 12 12 13 16 12 16 17 19 16 16 16 16 15 14 13 13 12 12 11 10 11 12 13 13 13 11 7 8 8 7 8 10 10 7 5 5 5 6 6 6 5 6 6 5 6 5 4 3 1 1 1 1 2 2 1 1 0 2 3 3 4 4 5 5 6 6 7
3 2 1 1 1 3 1 1 2 1 0 0 2 4 3 5 6 7 6 12 13 14 14 16 15 16 17 19 17 17 16 16 15 15 15 15 15 15 15 12 12 12 13 12 12 11 10 6 8 7 8 8 9 6 7 6 6 6 6 7 6 5 5 5 4 5 5 5 3 1 1 1 0 0 1 2 1 1 2 3 4 4 5 5 6 6 7
2 1 2 3 2 1 2 1 0 0 1 3 3 3 4 6 6 9 11 11 11 11 12 14 17 16 15 18 17 16 15 15 15 15 15 14 12 11 12 10 12 11 12 12 12 11 10 8 7 8 7 7 7 7 6 6 6 6 6 7 8 6 6 6 6 5 5 5 5 4 3 3 3 3 3 2 2 3 2 1 2 4 4 5 5 5 6
2 2 2 2 1 0 1 1 1 1 2 4 5 6 8 10 12 10 8 10 13 12 13 14 17 17 14 16 18 17 14 14 14 14 14 14 14 12 12 11 13 12 11 12 11 11 10 7 7 8 7 7 7 8 7 6 7 6 6 5 6 6 5 5 5 4 5 4 5 5 4 3 5 5 4 4 5 5 6 5 3 2 3 3 2 3 4
2 5 4 5 4 2 4 3 2 3 3 6 7 7 8 10 13 13 13 8 7 11 15 16 17 18 14 13 16 18 16 16 15 14 14 13 13 12 11 9 11 11 11 12 11 11 9 7 7 8 7 7 7 7 7 7 7 8 7 6 6 6 5 5 4 5 4 5 4 3 4 5 3 4 4 7 5 4 5 3 5 4 4 3 2 3 4
1 4 6 6 2 1 3 4 4 4 4 8 11 10 11 9 11 13 16 14 11 12 12 14 18 18 18 16 14 15 14 14 15 15 14 14 13 12 11 11 10 11 10 10 10 10 9 6 7 8 8 7 6 6 7 8 8 8 7 7 6 6 5 5 5 5 5 5 4 4 4 4 3 3 5 3 4 8 9 8 6 6 7 9 7 5 3
1 2 4 5 1 2 3 4 4 4 3 6 6 5 7 10 12 12 14 16 17 13 12 11 15 19 18 17 17 16 13 13 13 12 11 12 11 11 9 11 10 11 10 10 11 11 8 7 7 7 8 7 7 7 5 4 6 8 8 8 7 7 6 5 5 4 4 4 4 4 3 2 3 2 2 2 3 4 7 7 7 6 7 7 7 6 7
0 0 4 1 2 4 4 5 4 3 3 6 9 8 9 9 8 9 13 11 13 17 14 12 10 15 19 16 17 19 19 16 15 15 13 11 10 11 10 10 11 11 10 9 9 9 8 7 7 7 8 7 5 6 5 5 6 7 7 7 7 6 4 5 5 4 4 4 4 5 4 3 2 3 3 2 1 4 4 4 4 5 4 4 4 4 5
5 6 5 5 5 5 5 6 4 4 4 5 5 4 4 7 9 9 11 12 11 13 15 14 13 10 16 18 14 13 15 17 17 16 14 12 10 9 11 12 11 9 8 8 8 8 8 8 8 7 7 7 6 6 6 6 5 7 7 7 7 7 6 6 6 5 5 5 5 5 5 4 4 5 5 4 3 2 3 6 4 4 3 2 3 5 5
5 9 12 10 6 3 1 3 5 4 4 4 8 7 6 6 9 8 8 9 11 11 13 14 15 14 10 12 16 17 18 14 13 13 13 13 13 12 11 9 10 10 9 9 8 8 10 8 7 7 7 7 6 6 6 6 5 5 6 5 5 6 9 7 6 7 6 6 5 5 5 5 5 5 5 5 4 4 3 3 4 5 5 5 5 1 3
7 3 2 6 8 8 5 0 6 6 7 8 8 9 6 8 9 11 10 10 10 9 10 13 14 15 14 12 13 12 12 15 15 13 12 13 11 8 9 10 10 9 9 8 7 7 8 8 8 8 8 6 6 7 7 7 6 6 6 6 6 6 6 6 5 5 6 6 6 6 6 6 6 5 3 3 4 5 5 4 4 5 5 4 3 6 7
1 2 3 2 5 7 7 7 7 7 6 4 7 8 9 11 10 11 10 10 11 12 11 9 11 15 16 15 14 15 15 14 14 14 12 10 8 9 9 10 9 9 8 8 6 6 7 7 7 7 7 4 5 6 7 7 7 7 6 6 6 5 5 5 5 6 6 5 5 6 5 4 4 3 3 3 4 4 4 4 5 4 4 5 6 6 4
0 2 5 7 9 10 11 8 7 6 8 7 9 7 9 12 11 9 10 10 11 12 11 12 11 12 14 14 15 17 17 16 14 12 10 10 8 8 9 8 8 6 6 6 7 6 7 7 7 8 7 4 5 6 7 7 6 7 7 7 7 7 6 5 4 4 4 5 6 5 5 5 3 3 3 4 5 4 5 5 5 5 5 5 3 4 5
3 4 7 7 8 7 10 8 7 7 8 7 9 8 8 10 10 9 9 9 9 10 10 12 12 13 12 12 9 9 9 10 11 10 10 9 8 8 9 10 11 9 10 9 8 7 7 7 7 8 6 6 6 6 7 6 6 5 5 4 4 6 7 7 5 5 5 5 5 5 5 5 5 4 5 4 4 4 5 5 5 4 4 4 4 5 5
8 7 7 6 7 8 7 6 8 7 7 7 9 10 8 11 12 11 8 9 10 12 11 12 13 13 10 10 12 12 10 9 9 9 8 8 8 7 9 9 9 8 7 7 7 7 7 7 7 7 5 6 6 7 7 6 5 6 7 6 6 5 5 5 3 5 5 6 6 6 6 6 5 5 4 5 5 5 5 5 5 4 3 4 5 5 5
10 8 5 5 5 6 6 5 9 7 6 8 7 7 7 7 9 9 8 9 9 9 11 11 10 10 11 11 11 11 10 9 9 9 9 7 7 7 6 7 8 9 7 7 8 7 8 9 8 5 5 5 6 6 6 7 6 7 6 6 6 6 5 5 6 5 4 4 5 7 6 6 5 5 6 6 5 4 4 4 5 4 5 5 5 6 5
12 10 12 11 13 11 11 6 5 7 4 4 7 7 8 8 9 9 9 9 11 10 10 10 10 10 10 11 11 11 11 10 8 8 8 9 7 6 5 6 7 8 8 6 6 6 6 7 6 6 6 6 6 5 6 6 7 6 5 6 6 5 5 5 4 5 6 6 6 6 5 4 5 6 6 6 5 4 5 5 6 6 4 5 5 6 6
3 6 10 9 6 8 11 11 9 8 8 7 6 7 8 8 9 9 10 12 12 10 9 9 10 10 10 10 11 11 12 13 11 11 9 9 8 7 5 5 4 5 5 4 6 7 8 7 5 6 7 6 6 5 6 7 7 7 6 6 6 6 6 5 5 6 7 7 5 5 5 5 6 5 5 5 5 5 4 5 6 5 5 4 6 5 5
6 6 4 4 5 7 9 10 10 10 10 9 8 8 8 8 8 9 10 9 7 9 10 10 10 10 10 10 10 10 10 10 11 10 9 8 7 6 7 7 7 6 6 5 5 6 5 5 7 8 7 7 6 5 6 6 6 6 7 7 6 6 6 6 6 6 4 4 5 6 6 7 6 6 6 6 5 5 5 5 4 5 5 5 6 5 6
5 9 7 6 6 7 8 8 9 10 9 9 9 8 8 8 10 7 7 8 8 9 10 10 10 11 11 11 11 10 9 10 10 10 9 7 6 7 7 7 7 8 7 8 8 6 5 5 7 9 7 6 7 6 7 8 6 6 6 6 6 6 6 6 5 5 6 5 5 6 5 4 5 5 5 5 6 6 6 6 6 6 5 6 5 4 5
4 6 9 8 8 8 8 8 8 9 9 8 6 7 10 8 7 9 9 8 9 9 10 11 12 11 10 6 7 9 8 7 8 8 7 8 8 8 6 8 8 7 8 8 4 6 7 8 9 7 6 6 7 6 7 10 8 7 6 7 7 6 6 6 6 6 6 6 5 5 5 6 6 6 6 5 5 6 6 6 6 6 6 6 5 4 3
4 3 3 4 6 7 6 5 5 7 11 11 8 7 7 10 9 9 8 9 8 9 10 8 7 9 9 9 8 5 7 7 7 8 8 9 7 9 9 9 9 10 9 6 5 7 8 8 7 7 7 7 7 6 7 9 9 7 7 7 6 6 7 6 7 7 7 6 5 6 6 6 6 6 6 6 6 6 6 7 7 6 6 6 5 5 5
6 6 7 6 6 7 8 8 7 7 7 10 11 9 6 8 9 9 9 8 7 8 9 9 10 9 8 8 9 9 8 8 8 8 9 8 7 7 6 5 5 7 6 7 6 6 8 11 9 7 8 8 7 7 6 8 9 7 6 6 7 7 6 6 5 6 6 5 6 6 6 6 7 7 7 6 6 6 6 6 6 6 6 5 5 6 5
7 6 5 6 7 6 8 9 8 7 6 7 8 9 9 10 9 9 9 10 8 7 9 11 11 10 11 11 11 11 9 8 8 9 8 7 7 7 8 9 7 7 6 6 6 6 8 9 8 8 8 7 7 7 7 8 8 6 7 7 7 7 6 6 6 7 7 7 6 6 7 7 7 7 7 6 6 6 6 6 6 6 6 6 6 6 5
6 7 7 7 6 7 7 7 7 6 5 5 7 9 9 9 11 12 10 9 10 9 9 9 13 14 12 11 9 7 7 7 7 6 8 11 10 8 8 9 7 7 10 10 9 7 7 8 8 8 8 8 8 10 10 8 7 7 7 7 7 7 7 7 7 7 6 6 6 7 7 6 6 7 7 7 6 6 6 6 6 6 6 6 7 7 6
6 8 8 8 7 6 7 7 8 9 7 5 6 8 9 9 9 8 9 10 11 9 9 8 9 10 11 9 8 8 8 7 7 7 6 6 7 9 12 11 8 8 11 9 7 7 7 7 8 8 10 10 9 12 11 8 7 7 7 7 7 7 7 7 7 6 6 6 6 7 6 6 7 7 7 7 7 7 7 7 7 8 7 7 7 7 7
7 7 7 8 7 7 7 7 6 6 8 7 5 7 8 7 8 10 10 10 10 10 11 9 8 8 8 8 9 8 7 7 7 7 7 7 5 6 6 4 1 5 10 7 7 7 7 7 7 10 12 14 14 13 9 7 8 7 7 7 7 7 7 7 7 6 7 7 7 7 8 8 8 7 7 7 6 7 7 7 7 7 8 7 7 6 7
7 7 8 8 8 7 7 7 8 10 8 7 6 6 6 8 8 9 11 11 11 11 10 10 10 10 9 8 9 10 10 10 10 9 8 7 7 9 7 7 6 4 8 10 8 8 8 8 10 12 11 13 13 12 8 7 8 8 8 8 8 8 8 8 8 8 8 8 8 8 7 8 8 8 8 8 8 8 8 8 9 9 8 7 7 7 7
7 7 7 8 8 8 9 9 8 6 7 8 7 6 7 8 9 8 9 11 12 11 12 12 12 12 11 11 9 8 7 8 8 10 12 12 12 12 12 11 10 9 11 11 7 8 8 12 12 12 12 13 12 9 7 7 7 8 8 8 8 8 8 8 8 8 8 8 8 8 8 8 7 8 8 8 9 9 9 9 8 7 7 8 8 8 8
7 6 6 7 8 7 7 6 6 7 7 8 8 8 6 6 7 8 9 10 11 12 11 10 11 11 11 13 12 9 7 6 4 6 6 6 7 6 1 7 9 10 10 8 8 8 9 10 12 14 14 14 12 8 8 8 8 8 9 9 9 8 8 8 8 8 8 8 8 8 8 8 8 8 8 8 8 8 8 8 7 8 8 8 8 8 8
8 8 8 7 8 7 6 6 7 7 8 10 9 8 8 7 7 7 7 8 8 7 8 8 8 8 8 9 9 11 11 11 9 9 7 9 9 8 5 5 8 12 13 11 12 11 13 13 13 14 15 13 10 8 8 8 8 8 8 9 9 9 8 8 8 8 8 8 7 7 7 7 8 8 8 8 9 9 9 8 8 8 8 7 7 8 9
8 9 8 7 7 8 8 8 8 8 8 7 7 7 8 9 8 7 7 7 6 6 7 7 8 8 8 9 10 8 8 9 11 11 10 10 10 10 10 9 9 10 10 8 9 9 12 15 14 14 14 11 8 8 8 8 8 8 8 9 9 9 8 8 9 8 8 8 8 8 8 8 8 8 8 9 8 9 9 9 9 7 7 7 7 8 8
7 6 7 7 7 8 8 8 8 8 7 6 7 7 7 7 7 7 7 8 9 9 8 7 7 7 7 7 8 8 8 8 9 9 4 8 10 9 9 9 9 10 10 9 9 9 10 14 13 12 10 8 8 8 8 8 8 8 8 9 8 7 9 10 9 9 9 8 8 8 8 8 8 9 9 8 8 9 8 8 8 10 12 9 8 7 7
7 8 8 8 8 8 9 10 10 9 8 8 8 7 8 9 10 9 9 10 8 8 8 7 7 7 7 7 7 7 7 8 8 9 7 6 7 8 9 8 9 9 9 9 8 9 7 7 8 9 9 9 8 8 8 9 9 9 9 9 9 9 9 9 8 9 9 9 9 9 9 8 8 8 8 8 9 8 8 9 8 7 7 7 8 7 7
10 9 9 8 8 8 8 8 7 7 8 8 8 8 8 9 8 8 8 10 10 10 10 9 9 8 7 7 8 8 7 8 8 7 7 7 7 7 8 8 7 8 8 8 9 9 8 7 8 9 10 9 8 9 9 11 10 9 10 10 9 10 10 10 10 10 9 10 9 9 9 9 8 8 8 8 8 9 8 8 8 7 8 7 7 7 7
Wind_Direction
235 211 230 255 97 40 235 184 172 184 187 180 178 201 176 145 177 208 187 178 171 181 186 180 176 171 168 164 162 153 144 140 145 146 147 151 150 146 144 142 134 132 130 126 125 123 118 113 110 109 107 103 98 89 87 91 86 85 86 81 73 70 66 65 59 61 57 51 47 44 39 36 30 24 20 14 13 11 14 13 11 12 11 8 6 5 4
9 12 15 57 127 103 38 24 184 180 174 192 197 170 174 175 156 185 161 179 188 184 180 171 164 152 149 149 142 144 153 157 152 154 155 153 152 153 149 145 141 135 130 131 134 128 126 122 120 117 113 110 108 107 103 97 92 88 86 79 78 71 69 67 65 63 61 55 51 47 42 37 33 29 24 22 20 22 22 20 18 15 14 11 11 8 3
352 344 30 63 75 123 118 330 359 99 160 85 76 106 117 92 46 101 154 160 159 46 140 146 143 142 138 140 155 161 160 156 159 156 156 155 155 155 149 143 140 135 132 134 134 131 131 128 126 122 118 115 109 106 108 105 98 96 92 85 76 78 75 69 70 65 61 57 54 50 46 44 40 34 26 20 24 25 24 21 17 14 14 16 13 6 6
301 355 49 56 64 71 103 64 6 52 143 164 206 145 207 139 148 130 130 148 189 198 141 137 146 151 157 161 163 164 166 163 157 156 156 158 158 156 152 145 137 136 136 139 139 139 137 133 128 125 122 120 115 115 113 108 109 100 89 87 87 82 80 72 67 66 62 59 57 50 50 46 37 29 21 23 23 20 19 17 12 11 18 13 11 7 4
266 255 77 83 43 77 37 229 233 225 276 299 288 328 108 182 140 129 150 210 195 163 150 144 158 163 165 164 169 164 160 163 160 160 162 162 159 155 154 146 143 144 146 147 144 141 140 139 134 136 132 125 124 126 116 122 113 93 90 92 92 85 78 77 70 65 63 63 61 56 50 42 32 25 22 17 12 9 9 3 6 17 11 10 9 5 5
193 148 3 75 89 163 227 247 227 192 171 179 156 208 216 181 144 190 169 154 124 149 156 161 161 169 179 172 167 159 157 159 164 162 160 159 156 154 153 146 147 146 142 142 144 146 146 142 136 137 132 127 130 126 122 120 106 99 97 88 89 85 78 73 70 65 65 68 66 61 48 42 36 30 23 16 5 2 5 4 14 12 10 10 6 7 3
174 142 54 65 189 228 242 277 221 203 221 206 196 233 262 229 239 96 101 149 157 174 176 176 174 159 140 146 150 162 166 160 161 163 161 161 161 160 154 148 148 147 146 143 142 140 140 138 132 120 116 122 124 120 124 114 110 110 106 102 90 89 85 78 78 75 73 70 68 55 45 41 38 31 22 11 10 4 10 10 13 10 7 5 3 3 359
70 62 67 156 230 249 292 291 351 157 135 190 120 65 229 237 199 166 156 166 157 142 123 117 130 136 133 129 153 163 165 169 161 157 165 163 161 160 160 152 151 147 148 148 149 149 144 135 135 133 135 136 126 130 124 119 118 113 112 103 98 93 93 94 95 98 93 79 67 55 48 42 39 25 19 12 14 359 10 8 9 11 12 11 7 360 355
148 164 159 216 303 330 338 349 238 173 165 185 168 185 256 200 189 155 142 135 136 131 125 127 124 125 123 128 127 167 164 161 166 164 158 159 159 150 150 147 147 146 144 144 146 141 142 139 135 137 139 130 127 126 121 124 117 116 110 109 114 114 120 126 120 108 101 93 76 64 53 52 36 25 17 12 13 10 18 11 10 11 7 3 353 354 350
119 131 60 7 26 265 270 228 251 150 154 116 169 107 279 232 231 175 143 147 144 135 133 132 132 128 129 157 188 174 159 149 141 132 130 131 138 139 138 136 135 137 140 137 143 143 142 140 139 140 140 132 129 126 127 127 119 117 117 128 138 138 151 154 129 114 105 96 87 72 65 63 49 25 19 16 22 12 28 12 13 3 354 356 351 352 353
79 68 133 198 172 241 217 240 192 166 167 126 164 57 281 231 170 178 150 150 154 153 150 146 142 148 169 190 183 166 151 145 143 141 143 143 144 146 150 148 143 141 143 145 146 141 139 138 147 145 139 133 129 131 134 132 127 129 138 147 152 154 166 160 133 115 101 94 100 93 83 60 52 42 22 25 356 13 23 21 10 353 352 358 351 355 356
156 135 122 213 196 217 26 228 171 167 140 147 81 347 271 204 176 172 160 159 160 159 155 157 161 168 180 189 181 155 145 142 145 142 141 140 140 141 142 137 136 136 136 134 139 143 148 152 153 147 141 134 135 137 140 133 133 150 161 166 170 155 147 140 131 117 112 109 112 125 125 64 46 39 10 28 20 22 17 17 2 357 354 358 358 354 347
150 135 255 339 305 277 237 190 148 143 165 104 121 210 244 191 172 174 169 166 162 156 156 165 177 189 49 81 119 138 139 139 145 144 143 147 147 148 148 145 137 135 142 145 151 155 153 150 153 151 139 134 139 141 141 141 162 172 157 148 142 146 138 130 124 120 115 133 138 160 166 122 61 49 38 38 26 28 12 1 6 8 7 358 357 352 351
153 185 135 212 238 239 173 282 141 182 115 161 212 233 260 154 178 175 170 163 166 165 168 164 113 115 117 116 128 138 144 142 140 139 136 132 127 127 134 141 139 137 142 145 147 146 148 152 154 150 142 140 143 143 145 167 186 158 142 144 140 139 144 146 143 139 140 148 150 151 140 100 74 47 23 38 41 26 6 7 11 9 3 0 355 347 347
54 40 78 37 209 236 150 125 57 358 140 228 209 161 24 151 158 159 168 165 163 157 144 118 129 127 127 136 140 142 140 139 140 139 138 139 141 142 141 145 146 138 137 143 148 152 156 154 155 153 143 143 149 151 164 189 177 154 147 143 141 145 149 151 159 162 166 159 160 156 129 115 103 65 15 33 20 21 22 15 15 11 5 357 354 353 356
141 142 152 198 216 218 193 153 177 207 195 190 173 143 112 121 144 151 143 154 158 147 129 133 132 133 129 132 139 136 138 138 140 140 140 140 140 145 149 148 149 139 136 140 142 148 154 157 157 154 146 146 152 160 187 175 158 143 131 141 139 143 156 163 162 168 171 166 155 136 132 111 89 81 22 0 2 17 12 26 15 11 2 352 354 359 359
129 191 214 241 236 227 253 71 220 260 285 185 189 163 155 145 171 155 148 152 142 137 135 131 134 133 140 142 145 142 143 141 143 145 148 150 152 153 152 152 149 140 139 142 142 146 154 157 160 158 152 147 158 174 190 151 158 151 140 141 143 150 158 165 170 174 158 160 164 147 127 125 132 152 345 31 6 342 17 16 17 14 351 350 358 349 354
239 263 198 259 303 291 275 328 262 226 304 2 122 139 145 191 155 165 159 149 142 142 143 135 143 143 144 139 143 140 143 143 145 143 142 141 142 139 138 141 146 140 136 138 141 146 156 159 160 160 157 148 158 189 162 158 152 148 142 143 152 165 163 162 169 160 153 174 194 189 139 136 179 176 183 195 219 315 6 0 5 9 350 352 354 354 356
123 251 14 5 256 309 323 337 344 351 189 208 140 136 148 131 124 110 122 144 147 150 148 143 143 143 146 142 142 141 142 142 145 147 148 151 150 149 148 150 141 136 137 139 144 147 155 173 156 160 155 165 162 155 155 148 142 143 147 148 151 153 159 162 160 157 157 176 195 203 211 207 243 191 170 184 189 284 281 345 360 360 351 352 352 353 356
144 234 295 276 259 246 263 222 240 71 6 64 79 118 118 114 106 121 133 128 131 141 139 141 139 144 148 142 143 143 144 145 146 149 150 148 144 144 140 142 139 136 139 144 148 150 156 172 160 155 158 157 153 148 143 139 137 142 148 148 149 159 164 166 166 163 164 179 177 195 220 215 237 263 260 153 200 231 250 284 339 342 343 342 349 349 338
277 286 266 293 334 347 354 343 162 185 157 116 101 113 124 124 123 123 128 143 147 145 142 139 138 141 152 148 144 140 141 144 148 149 150 150 147 142 143 148 143 145 146 146 152 152 158 165 157 152 157 154 149 149 150 147 148 148 145 140 135 143 153 152 165 161 169 177 182 189 217 248 247 221 215 205 222 264 253 212 201 232 289 297 310 297 288
312 210 221 172 124 231 229 244 214 152 153 125 118 116 121 132 133 139 133 132 136 140 144 147 144 143 146 149 145 142 145 146 146 148 148 148 146 148 145 142 141 140 146 147 153 155 158 162 159 154 158 161 162 155 154 160 164 142 141 138 136 152 160 158 152 151 164 181 184 192 202 222 268 298 245 219 203 208 269 255 227 242 200 229 271 310 302
246 251 208 174 152 186 235 185 170 152 156 140 139 149 147 148 146 144 139 137 138 146 151 151 146 144 146 148 142 138 143 146 147 147 150 149 153 151 146 137 140 143 149 150 149 152 159 163 161 156 161 162 156 162 167 175 160 138 143 141 148 156 159 169 167 165 160 165 185 193 216 219 217 253 315 322 244 236 246 265 259 231 234 250 268 272 236
261 253 171 164 143 197 162 139 140 141 149 133 121 124 140 147 151 151 145 147 144 146 148 155 150 145 143 143 139 133 130 135 137 145 148 151 150 142 144 141 145 144 150 153 155 160 160 162 162 158 158 167 167 170 171 170 144 142 149 147 159 175 175 172 160 161 170 164 154 157 192 166 171 181 248 307 320 279 248 254 267 261 244 255 263 252 242
303 193 138 166 107 85 93 121 114 119 121 137 138 147 148 144 145 147 141 143 146 144 146 146 148 146 141 139 144 144 145 146 152 155 148 144 145 148 151 146 150 152 157 158 155 152 157 160 159 159 159 173 170 163 160 154 143 141 154 154 158 167 166 163 164 162 172 175 178 170 183 199 206 176 194 172 267 310 324 306 282 269 281 269 263 269 288
126 104 93 87 78 95 116 90 63 94 106 109 106 104 123 136 138 139 141 141 144 145 140 139 134 136 141 140 140 137 142 153 152 146 148 151 152 154 155 160 158 151 149 148 149 153 155 160 160 160 163 173 175 173 162 160 163 155 162 168 165 159 164 173 164 179 188 197 185 195 200 197 204 198 208 195 201 225 303 331 343 336 325 285 316 318 301
113 128 108 72 70 71 175 139 177 165 121 114 120 125 126 124 124 122 126 132 136 140 140 138 135 135 132 136 141 148 150 147 143 147 148 156 165 169 162 152 151 150 145 144 149 156 155 157 156 163 174 184 177 166 166 160 155 148 154 155 151 161 161 163 174 184 196 192 191 188 182 204 218 213 222 211 190 195 227 267 296 291 287 309 316 277 298
147 158 61 141 185 187 196 132 121 124 124 121 119 116 122 116 115 119 119 119 119 120 125 130 130 130 131 138 137 134 136 146 150 150 153 166 168 158 147 147 145 145 143 145 150 150 148 155 161 166 187 182 166 168 163 156 156 153 155 158 158 158 170 176 185 192 195 197 187 186 194 211 209 211 194 166 192 223 237 230 238 268 297 274 263 301 308
148 336 25 62 107 114 107 104 93 98 97 101 111 114 123 124 125 126 127 130 129 127 125 127 134 138 140 145 148 149 152 152 152 159 165 162 152 150 147 142 142 142 141 142 143 147 144 150 159 168 193 179 163 164 160 156 155 153 156 161 161 162 170 187 197 206 206 201 195 200 205 197 175 170 174 201 222 227 232 231 249 251 255 291 326 329 343
6 107 90 106 116 118 111 109 120 118 121 130 124 126 131 129 129 128 128 132 135 132 134 131 133 140 143 146 154 159 161 159 157 158 153 151 149 145 143 134 119 116 124 137 154 157 149 154 159 169 183 179 167 160 159 160 161 162 165 169 169 174 187 192 197 207 201 210 217 208 204 192 168 158 183 202 220 223 235 248 246 263 290 297 315 302 303
84 97 110 113 114 118 121 128 124 130 132 135 132 129 129 126 124 129 132 131 128 127 136 137 140 143 153 151 135 128 133 147 148 147 147 145 144 145 144 144 143 159 165 171 166 164 157 161 164 174 183 162 163 162 159 162 158 154 151 159 161 173 179 184 187 191 209 209 203 198 213 202 186 178 204 218 235 253 252 252 267 266 254 270 287 290 277
95 87 96 107 118 116 112 116 123 134 143 140 136 139 145 138 139 138 138 135 139 138 136 138 144 150 145 135 144 147 144 144 138 137 136 137 144 153 157 159 153 154 161 159 161 166 161 158 173 194 171 160 161 165 164 159 151 156 174 170 164 181 200 196 210 220 213 211 197 194 208 202 217 201 205 219 233 235 246 246 259 262 261 271 276 265 265
106 89 71 91 87 105 118 143 136 139 143 146 145 136 131 134 132 134 135 133 131 138 142 147 147 139 137 141 140 142 144 139 135 133 137 144 154 162 165 159 156 158 161 167 169 170 163 169 190 184 174 167 162 167 173 167 169 178 179 170 179 187 189 199 209 197 193 184 186 208 204 208 203 188 213 222 228 225 237 245 254 266 271 255 249 264 266
154 169 170 169 159 161 156 162 148 132 123 118 133 132 129 133 137 135 136 141 141 144 148 146 141 139 139 142 141 137 134 128 132 149 158 158 162 165 168 158 159 161 168 162 156 166 180 191 179 175 180 170 169 170 178 174 179 185 175 167 172 181 195 216 190 185 184 196 210 206 208 201 196 208 218 221 221 213 225 237 246 256 273 272 261 262 279
146 153 162 165 156 146 145 142 149 145 138 132 132 135 136 136 139 144 145 147 153 153 142 133 135 138 137 133 136 143 149 156 160 159 166 164 166 164 155 136 132 138 143 163 174 184 193 191 185 179 171 175 173 180 177 181 180 182 180 176 176 187 195 177 176 188 193 209 183 182 205 213 227 223 217 206 217 218 217 231 241 250 253 272 280 277 279
116 109 107 117 135 143 142 143 146 147 145 146 149 144 145 145 138 139 151 152 135 129 135 136 136 133 135 140 143 153 160 160 159 161 161 171 163 149 143 148 151 159 172 200 226 211 196 190 189 178 171 175 182 192 185 178 179 179 177 172 178 192 192 190 196 192 195 165 183 203 206 216 222 220 210 212 219 217 215 233 244 242 239 250 256 280 285
144 144 145 141 142 142 139 138 143 142 144 145 145 143 142 149 153 150 135 129 138 140 137 136 136 142 152 162 164 162 158 158 160 165 168 157 144 148 157 155 162 169 172 190 222 198 199 197 195 182 180 179 186 194 191 176 176 176 161 174 181 184 184 185 187 191 207 205 204 209 215 211 221 228 210 203 214 220 218 229 243 245 243 247 249 250 266
151 146 147 147 147 143 148 150 146 136 132 135 145 151 154 152 144 143 147 143 142 144 144 149 156 160 151 139 143 155 159 159 158 155 145 150 158 152 160 163 180 173 177 206 205 172 197 194 177 175 190 191 197 201 193 190 180 166 169 181 189 195 193 189 187 201 206 211 209 201 201 207 211 219 214 210 216 218 220 226 231 240 250 249 244 238 242
92 69 87 117 125 126 123 120 132 143 145 148 155 156 155 147 148 139 141 151 152 149 152 149 132 126 138 148 158 158 163 167 163 152 156 163 165 161 180 191 188 184 194 197 161 182 191 182 169 178 188 202 201 207 197 192 180 177 183 185 188 195 200 193 194 201 205 197 183 201 209 216 218 215 212 213 216 223 224 223 229 233 242 251 246 246 242
141 144 146 138 133 137 135 143 152 162 164 151 150 154 154 143 149 148 145 143 158 157 145 137 140 147 156 158 160 173 182 174 167 163 165 162 167 182 197 228 226 213 213 182 181 187 182 176 173 184 195 201 195 196 198 188 183 184 179 185 192 195 196 196 195 202 209 185 198 205 210 213 214 218 219 219 217 220 222 228 232 238 243 253 250 249 251
157 146 146 142 146 147 146 147 159 166 161 160 155 147 152 155 148 142 155 160 161 159 155 155 155 162 168 171 176 181 175 170 170 173 160 142 163 184 187 215 220 202 207 202 194 189 178 176 182 188 205 194 197 194 197 186 184 187 189 189 190 193 197 191 195 203 198 199 200 201 209 211 215 223 225 226 227 226 225 227 230 233 231 236 245 245 242
164 150 145 141 147 155 157 154 143 143 168 168 155 154 155 152 153 165 166 154 155 162 166 174 169 170 178 178 174 159 160 168 169 165 163 170 177 180 189 228 209 192 196 196 198 185 180 187 191 195 195 193 194 199 194 183 188 192 193 196 197 197 197 197 199 210 209 205 201 206 210 209 209 218 222 223 230 232 229 229 236 241 240 235 240 239 237
151 152 156 158 159 157 149 150 158 165 165 170 163 162 160 165 162 147 143 154 160 162 171 179 185 175 166 162 156 161 171 166 167 173 191 222 204 186 186 212 203 200 184 185 182 182 186 198 196 207 199 192 199 200 190 187 190 193 200 203 203 202 204 202 205 203 194 202 212 215 210 211 213 221 221 221 224 225 222 223 227 232 233 232 234 237 238
168 162 158 158 164 163 155 158 159 155 157 179 178 167 163 161 154 152 156 161 167 171 171 174 169 171 175 169 163 167 168 166 173 177 178 211 258 275 261 267 253 171 166 174 176 188 196 200 205 210 207 202 205 194 183 191 191 197 203 203 206 206 208 209 211 200 199 206 210 212 211 208 212 219 220 224 227 229 226 226 230 232 235 234 234 236 238
167 168 168 168 161 152 159 158 159 172 178 161 153 163 171 163 163 164 160 165 171 178 177 172 173 176 173 174 181 186 179 179 175 165 168 193 208 240 235 216 197 181 190 182 185 195 204 205 211 209 208 209 211 196 187 190 195 199 203 205 208 207 210 211 212 209 209 209 212 215 213 212 212 214 215 222 223 223 223 221 226 227 227 231 233 234 235
171 174 168 151 155 169 174 172 175 155 138 144 156 172 177 173 167 167 171 172 175 181 184 182 178 179 177 182 192 193 185 182 182 183 187 181 185 216 210 200 199 200 193 187 191 197 211 213 214 214 216 215 210 196 198 201 201 203 205 207 210 208 210 215 216 218 213 212 214 212 212 217 214 216 214 215 218 220 227 227 232 234 226 228 230 229 232
166 162 168 171 177 176 171 165 148 144 143 146 160 182 194 183 174 173 179 183 184 186 187 187 189 188 183 179 177 173 170 179 214 227 237 254 260 274 247 194 209 201 185 189 198 203 206 211 213 215 215 218 206 201 203 203 204 205 206 208 209 210 213 216 217 220 217 218 218 217 220 216 216 220 218 220 223 223 226 225 229 232 229 228 234 237 236
168 172 178 175 173 171 156 149 149 159 166 177 179 180 181 178 179 187 185 184 189 191 191 192 193 191 188 192 192 186 180 173 197 235 211 217 224 223 219 195 198 192 192 202 209 219 216 212 211 210 212 208 200 205 204 204 204 205 205 206 207 209 214 218 221 222 222 221 217 218 221 221 221 221 219 216 221 220 220 220 224 229 228 222 227 227 226
180 181 178 172 163 157 161 167 173 176 187 184 173 181 175 176 179 178 180 185 185 189 195 204 202 200 198 198 193 200 203 194 183 212 207 196 205 209 217 211 204 191 190 195 208 220 217 217 214 213 209 197 193 200 202 203 205 207 207 206 208 210 211 214 220 218 215 217 216 216 218 217 218 213 218 220 222 223 220 220 222 220 222 221 225 226 226
181 169 169 174 172 173 172 170 181 190 184 172 186 177 165 158 169 197 189 185 189 191 194 201 204 205 199 200 204 212 199 202 219 233 187 175 202 208 209 201 199 190 190 195 207 218 223 214 214 212 202 194 196 196 200 201 205 207 211 212 212 215 215 216 222 218 214 219 220 219 218 220 221 222 221 222 223 223 219 217 215 219 220 219 220 222 222
177 182 192 190 189 188 182 182 188 184 182 185 184 169 160 174 190 190 187 187 181 185 200 208 215 212 203 207 212 211 207 208 214 223 213 194 191 203 204 201 199 197 198 199 208 218 211 198 201 201 200 201 199 197 198 202 206 209 211 213 214 216 219 218 215 217 216 216 217 218 218 220 220 223 221 223 223 223 218 215 216 217 214 216 217 220 220
185 188 188 186 190 191 192 197 193 188 188 183 178 169 178 186 187 191 195 190 186 191 193 191 216 227 206 207 207 212 208 207 211 216 215 211 200 208 206 199 198 202 202 210 220 223 217 207 202 200 199 201 203 205 207 205 206 211 213 216 217 218 218 218 215 216 218 214 212 218 220 220 216 219 224 225 222 221 219 216 217 218 217 217 216 216 218